TimeEDT,TemperatureF,Dew PointF,Humidity,Sea Level PressureIn,VisibilityMPH,Wind Direction,Wind SpeedMPH,Gust SpeedMPH,PrecipitationIn,Events,Conditions,WindDirDegrees,DateUTC
12:15 AM,55.4,50.0,82,30.26,10.0,Calm,Calm,-,N/A,,Clear,0,2012-09-11 04:15:00
12:35 AM,57.2,48.2,72,30.26,10.0,Calm,Calm,-,N/A,,Clear,0,2012-09-11 04:35:00
12:55 AM,57.2,48.2,72,30.26,10.0,Calm,Calm,-,N/A,,Clear,0,2012-09-11 04:55:00
1:15 AM,55.4,48.2,77,30.26,10.0,Calm,Calm,-,N/A,,Clear,0,2012-09-11 05:15:00
1:35 AM,55.4,48.2,77,30.26,10.0,Calm,Calm,-,N/A,,Clear,0,2012-09-11 05:35:00
1:55 AM,55.4,48.2,77,30.26,10.0,Calm,Calm,-,N/A,,Clear,0,2012-09-11 05:55:00
2:15 AM,55.4,46.4,72,30.26,10.0,Calm,Calm,-,N/A,,Clear,0,2012-09-11 06:15:00
2:35 AM,55.4,46.4,72,30.25,10.0,Calm,Calm,-,N/A,,Clear,0,2012-09-11 06:35:00
2:55 AM,51.8,46.4,82,30.26,10.0,Calm,Calm,-,N/A,,Clear,0,2012-09-11 06:55:00
3:15 AM,51.8,46.4,82,30.25,10.0,Calm,Calm,-,N/A,,Clear,0,2012-09-11 07:15:00
3:35 AM,53.6,46.4,77,30.25,10.0,Calm,Calm,-,N/A,,Clear,0,2012-09-11 07:35:00
3:55 AM,53.6,46.4,77,30.26,10.0,Calm,Calm,-,N/A,,Clear,0,2012-09-11 07:55:00
4:15 AM,53.6,46.4,77,30.26,10.0,Calm,Calm,-,N/A,,Clear,0,2012-09-11 08:15:00
4:35 AM,51.8,46.4,82,30.26,10.0,Calm,Calm,-,N/A,,Clear,0,2012-09-11 08:35:00
4:55 AM,53.6,46.4,77,30.26,10.0,Calm,Calm,-,N/A,,Clear,0,2012-09-11 08:55:00
5:15 AM,55.4,46.4,72,30.26,10.0,Calm,Calm,-,N/A,,Clear,0,2012-09-11 09:15:00
5:35 AM,55.4,46.4,72,30.27,10.0,Calm,Calm,-,N/A,,Clear,0,2012-09-11 09:35:00
5:55 AM,55.4,46.4,72,30.27,10.0,Calm,Calm,-,N/A,,Clear,0,2012-09-11 09:55:00
6:15 AM,51.8,46.4,82,30.28,10.0,Calm,Calm,-,N/A,,Clear,0,2012-09-11 10:15:00
6:35 AM,53.6,46.4,77,30.28,10.0,Calm,Calm,-,N/A,,Clear,0,2012-09-11 10:35:00
6:55 AM,51.8,46.4,82,30.29,10.0,Calm,Calm,-,N/A,,Clear,0,2012-09-11 10:55:00
7:15 AM,51.8,46.4,82,30.30,10.0,Calm,Calm,-,N/A,,Clear,0,2012-09-11 11:15:00
7:35 AM,50.0,48.2,94,30.31,10.0,Calm,Calm,-,N/A,,Clear,0,2012-09-11 11:35:00
7:55 AM,51.8,48.2,88,30.32,10.0,Calm,Calm,-,N/A,,Clear,0,2012-09-11 11:55:00
8:15 AM,55.4,51.8,88,30.32,10.0,Calm,Calm,-,N/A,,Clear,0,2012-09-11 12:15:00
8:35 AM,59.0,53.6,82,30.33,10.0,Calm,Calm,-,N/A,,Clear,0,2012-09-11 12:35:00
8:55 AM,60.8,51.8,72,30.32,10.0,Calm,Calm,-,N/A,,Clear,0,2012-09-11 12:55:00
9:15 AM,62.6,51.8,68,30.33,10.0,Calm,Calm,-,N/A,,Clear,0,2012-09-11 13:15:00
9:35 AM,64.4,51.8,64,30.33,10.0,Calm,Calm,-,N/A,,Clear,0,2012-09-11 13:35:00
9:55 AM,64.4,51.8,64,30.34,10.0,SSE,5.8,-,N/A,,Clear,150,2012-09-11 13:55:00
10:15 AM,66.2,51.8,60,30.34,10.0,SE,3.5,-,N/A,,Clear,130,2012-09-11 14:15:00
10:35 AM,68.0,53.6,60,30.34,10.0,Calm,Calm,-,N/A,,Clear,0,2012-09-11 14:35:00
10:55 AM,68.0,53.6,60,30.34,10.0,Calm,Calm,-,N/A,,Clear,0,2012-09-11 14:55:00
11:15 AM,69.8,53.6,56,30.35,10.0,ESE,4.6,-,N/A,,Clear,120,2012-09-11 15:15:00
11:35 AM,69.8,53.6,56,30.35,10.0,Calm,Calm,-,N/A,,Clear,0,2012-09-11 15:35:00
11:55 AM,69.8,55.4,60,30.35,10.0,South,6.9,-,N/A,,Scattered Clouds,190,2012-09-11 15:55:00
12:15 PM,71.6,55.4,57,30.34,10.0,Calm,Calm,-,N/A,,Mostly Cloudy,0,2012-09-11 16:15:00
12:35 PM,69.8,55.4,60,30.34,10.0,WSW,4.6,-,N/A,,Mostly Cloudy,240,2012-09-11 16:35:00
12:55 PM,69.8,55.4,60,30.34,10.0,Calm,Calm,-,N/A,,Mostly Cloudy,0,2012-09-11 16:55:00
1:15 PM,73.4,55.4,53,30.33,10.0,South,9.2,-,N/A,,Mostly Cloudy,190,2012-09-11 17:15:00
1:35 PM,73.4,53.6,50,30.33,10.0,SSW,11.5,-,N/A,,Mostly Cloudy,210,2012-09-11 17:35:00
1:55 PM,73.4,55.4,53,30.33,10.0,SW,11.5,-,N/A,,Scattered Clouds,220,2012-09-11 17:55:00
2:15 PM,73.4,53.6,50,30.32,10.0,SW,10.4,17.3,N/A,,Clear,230,2012-09-11 18:15:00
2:35 PM,73.4,55.4,53,30.32,10.0,SSW,8.1,-,N/A,,Clear,210,2012-09-11 18:35:00
2:55 PM,73.4,53.6,50,30.31,10.0,SW,8.1,-,N/A,,Clear,230,2012-09-11 18:55:00
3:15 PM,75.2,53.6,47,30.30,10.0,SSW,5.8,-,N/A,,Clear,210,2012-09-11 19:15:00
3:35 PM,75.2,53.6,47,30.30,10.0,SW,6.9,-,N/A,,Clear,220,2012-09-11 19:35:00
3:55 PM,75.2,51.8,44,30.30,10.0,WSW,5.8,-,N/A,,Clear,250,2012-09-11 19:55:00
4:15 PM,75.2,53.6,47,30.30,10.0,SW,8.1,-,N/A,,Scattered Clouds,230,2012-09-11 20:15:00
4:35 PM,77.0,53.6,44,30.30,10.0,SW,4.6,-,N/A,,Scattered Clouds,230,2012-09-11 20:35:00
4:55 PM,75.2,53.6,47,30.30,10.0,WSW,6.9,-,N/A,,Clear,250,2012-09-11 20:55:00
5:15 PM,75.2,51.8,44,30.30,10.0,WSW,3.5,-,N/A,,Clear,240,2012-09-11 21:15:00
5:35 PM,75.2,53.6,47,30.30,10.0,SW,8.1,-,N/A,,Clear,220,2012-09-11 21:35:00
5:55 PM,73.4,53.6,50,30.30,10.0,West,3.5,-,N/A,,Clear,270,2012-09-11 21:55:00
6:15 PM,73.4,53.6,50,30.30,10.0,SSW,5.8,-,N/A,,Scattered Clouds,210,2012-09-11 22:15:00
6:35 PM,71.6,53.6,53,30.30,10.0,SW,5.8,-,N/A,,Scattered Clouds,220,2012-09-11 22:35:00
6:55 PM,71.6,53.6,53,30.30,10.0,SSW,3.5,-,N/A,,Clear,210,2012-09-11 22:55:00
7:15 PM,69.8,55.4,60,30.30,10.0,South,3.5,-,N/A,,Clear,180,2012-09-11 23:15:00
7:35 PM,68.0,55.4,64,30.30,10.0,Calm,Calm,-,N/A,,Clear,0,2012-09-11 23:35:00
7:55 PM,64.4,55.4,73,30.30,10.0,Calm,Calm,-,N/A,,Clear,0,2012-09-11 23:55:00
8:15 PM,62.6,55.4,77,30.31,10.0,Calm,Calm,-,N/A,,Clear,0,2012-09-12 00:15:00
8:35 PM,62.6,53.6,72,30.31,10.0,Calm,Calm,-,N/A,,Clear,0,2012-09-12 00:35:00
8:55 PM,62.6,55.4,77,30.32,10.0,Calm,Calm,-,N/A,,Clear,0,2012-09-12 00:55:00
9:15 PM,60.8,53.6,77,30.33,10.0,Calm,Calm,-,N/A,,Clear,0,2012-09-12 01:15:00
9:35 PM,62.6,53.6,72,30.33,10.0,Calm,Calm,-,N/A,,Clear,0,2012-09-12 01:35:00
9:55 PM,62.6,53.6,72,30.33,10.0,Calm,Calm,-,N/A,,Clear,0,2012-09-12 01:55:00
10:15 PM,60.8,53.6,77,30.33,10.0,Calm,Calm,-,N/A,,Clear,0,2012-09-12 02:15:00
10:35 PM,59.0,53.6,82,30.33,10.0,Calm,Calm,-,N/A,,Clear,0,2012-09-12 02:35:00
10:55 PM,59.0,53.6,82,30.33,10.0,Calm,Calm,-,N/A,,Clear,0,2012-09-12 02:55:00
11:15 PM,59.0,53.6,82,30.34,10.0,Calm,Calm,-,N/A,,Clear,0,2012-09-12 03:15:00
11:35 PM,60.8,53.6,77,30.34,10.0,Calm,Calm,-,N/A,,Clear,0,2012-09-12 03:35:00
11:55 PM,60.8,53.6,77,30.34,10.0,Calm,Calm,-,N/A,,Clear,0,2012-09-12 03:55:00